GPS BIIR-11 (PRN 19)

Last updated on June 26, 2019, 3:46 a.m. UTC

1 28190U 04009A   19176.43518177 -.00000071  00000-0  00000+0 0  9991
2 28190  56.2694  16.8151 0093892  82.0392 120.6982  2.00568264111858
UTC
Height (km)
Latitude
Longitude
Inclination
Orbital Period
UTC large
Height (km)
Speed (km/s)
/
Latitude / Longitude
Inclination (degrees)
Orbital Period (minutes)
Azimuth
Elevation
Range (km)
Doppler Factor
iOS Compass Heading
iOS Angle

Next 30 passes for location: Hong Kong

Rise time Rise Azimuth (degrees) Set time Set Azimuth (degrees) Duration Max altitude (degrees)

No matching passes for this satellites